GW5237 Weather Reports


time (UTC)temp
F
wind
direction
speed
knots
gust
knots
rain 1hr
in
rain 24hr
in
rain mn
in
humidity
%
barometer
mb
20260506082226 59 76 0.0 0.0 0.00 0.00 0.00 96 1015.6
20260506081724 59 76 0.0 0.0 0.00 0.00 0.00 96 1015.9
20260506081221 59 76 0.0 0.0 0.00 0.00 0.00 96 1015.8
20260506080719 59 77 0.0 0.0 0.00 0.00 0.00 96 1015.8
20260506080215 59 77 0.0 0.0 0.00 0.00 0.00 96 1015.8
20260506073154 59 62 0.0 0.0 0.00 0.00 0.00 96 1015.3
20260506072650 59 86 0.0 0.0 0.00 0.00 0.00 96 1015.3
20260506072148 59 65 0.0 0.0 0.00 0.00 0.00 96 1015.2
20260506071646 59 73 0.0 0.0 0.00 0.00 0.00 96 1015.3
20260506071143 59 93 0.0 0.9 0.00 0.00 0.00 96 1015.5
20260506070639 59 83 0.0 0.0 0.00 0.00 0.00 96 1015.7
20260506070137 58 164 0.0 0.0 0.00 0.00 0.00 96 1015.7
20260506062115 57 81 0.0 0.0 0.00 0.00 0.00 94 1016.1
20260506061610 57 81 0.0 0.0 0.00 0.00 0.00 94 1016.2
20260506061108 57 81 0.0 0.0 0.00 0.00 0.00 94 1016.1
20260506060606 58 81 0.0 0.0 0.00 0.00 0.00 94 1016.2
20260506051034 60 81 0.0 0.0 0.00 0.00 0.00 91 1016.6
20260506050532 59 76 0.0 0.0 0.00 0.00 0.00 90 1016.7
20260506045023 60 63 0.0 0.0 0.00 0.00 0.00 89 1016.9
20260506044521 61 179 0.0 0.0 0.00 0.00 0.00 88 1017.2
20260506044018 61 179 0.0 0.0 0.00 0.00 0.00 87 1017.2
20260506043515 61 179 0.0 0.0 0.00 0.00 0.00 86 1017.3
20260506043013 62 179 0.0 0.0 0.00 0.00 0.00 86 1016.9
20260506042512 62 175 0.9 0.9 0.00 0.00 0.00 86 1017.1
20260506042010 62 108 0.0 0.0 0.00 0.00 0.00 85 1017.0
20260506041508 62 170 0.9 0.9 0.00 0.00 0.00 84 1017.1
20260506041004 62 235 1.7 1.7 0.00 0.00 0.00 84 1017.4
20260506040502 62 139 1.7 2.6 0.00 0.00 0.00 84 1017.2
20260506035957 62 160 0.9 1.7 0.00 0.00 0.00 84 1017.1
20260506035455 62 175 0.9 0.9 0.00 0.00 0.00 85 1017.3
20260506034951 62 195 1.7 1.7 0.00 0.00 0.00 85 1017.4
20260506034449 62 219 1.7 2.6 0.00 0.00 0.00 85 1017.3
20260506033946 62 239 1.7 1.7 0.00 0.00 0.00 86 1017.4
20260506033443 62 156 0.9 1.7 0.00 0.00 0.00 86 1017.3
20260506032939 61 225 2.6 2.6 0.00 0.00 0.00 86 1017.2
20260506032437 61 141 0.9 0.9 0.00 0.00 0.00 85 1017.3
20260506031933 62 132 0.0 0.0 0.00 0.00 0.00 84 1017.2
20260506031430 62 130 0.0 0.0 0.00 0.00 0.00 83 1017.5
20260506030928 62 155 0.0 0.0 0.00 0.00 0.00 83 1017.4
20260506030426 62 162 0.9 1.7 0.00 0.00 0.00 82 1017.4
20260506025923 62 154 0.0 0.9 0.00 0.00 0.00 82 1017.7
20260506025420 63 149 0.0 0.9 0.00 0.00 0.00 81 1017.6
20260506024916 63 118 0.0 0.0 0.00 0.00 0.00 81 1017.4
20260506024414 63 93 0.9 0.9 0.00 0.00 0.00 80 1017.4
20260506023909 63 198 0.9 0.9 0.00 0.00 0.00 80 1017.4
20260506023406 63 116 0.0 0.9 0.00 0.00 0.00 79 1017.4
20260506022903 63 124 0.9 0.9 0.00 0.00 0.00 79 1017.4
20260506022400 64 132 1.7 1.7 0.00 0.00 0.00 79 1017.4
20260506021858 64 158 0.0 0.0 0.00 0.00 0.00 78 1017.3
20260506021355 64 198 1.7 1.7 0.00 0.00 0.00 77 1017.3
20260506020852 64 142 0.9 0.9 0.00 0.00 0.00 77 1017.3
20260506020350 64 105 0.0 0.9 0.00 0.00 0.00 76 1017.0
20260506015847 64 126 1.7 2.6 0.00 0.00 0.00 76 1017.1
20260506015345 65 107 1.7 1.7 0.00 0.00 0.00 76 1017.1
20260506014842 65 180 2.6 2.6 0.00 0.00 0.00 75 1016.9
20260506014339 65 210 0.9 2.6 0.00 0.00 0.00 75 1017.0
20260506013835 65 189 0.9 1.7 0.00 0.00 0.00 74 1017.2
20260506013333 65 106 1.7 3.5 0.00 0.00 0.00 74 1017.3
20260506012829 65 144 0.9 0.9 0.00 0.00 0.00 74 1017.0
20260506012326 65 106 0.9 0.9 0.00 0.00 0.00 73 1016.9
20260506011824 65 107 1.7 2.6 0.00 0.00 0.00 73 1017.1
20260506011320 66 126 0.9 1.7 0.00 0.00 0.00 73 1017.0
20260506010818 66 98 0.9 0.9 0.00 0.00 0.00 73 1016.9
20260506010315 66 210 2.6 3.5 0.00 0.00 0.00 72 1016.9
20260506005812 66 193 4.3 5.2 0.00 0.00 0.00 72 1017.0
20260506005309 66 192 1.7 2.6 0.00 0.00 0.00 72 1016.8
20260506004805 66 245 3.5 3.5 0.00 0.00 0.00 72 1016.9
20260506004303 67 201 3.5 3.5 0.00 0.00 0.00 71 1016.6
20260506003759 67 124 1.7 2.6 0.00 0.00 0.00 70 1016.6
20260506003255 67 185 0.9 1.7 0.00 0.00 0.00 70 1016.5
20260506002751 67 202 0.9 1.7 0.00 0.00 0.00 69 1016.7
20260506002248 67 236 1.7 2.6 0.00 0.00 0.00 69 1016.7
20260506001743 68 181 2.6 2.6 0.00 0.00 0.00 68 1016.6
20260506001241 68 214 2.6 3.5 0.00 0.00 0.00 68 1016.6
20260506000738 68 71 1.7 2.6 0.00 0.00 0.00 67 1016.6
20260506000235 69 215 1.7 2.6 0.00 0.00 0.00 67 1016.7
20260505235732 69 206 3.5 5.2 0.00 0.00 0.00 66 1016.5
20260505235230 69 226 3.5 3.5 0.00 0.00 0.00 66 1016.5
20260505234726 69 209 2.6 3.5 0.00 0.00 0.00 66 1016.7
20260505234223 70 182 3.5 6.1 0.00 0.00 0.00 65 1016.7
20260505233720 70 248 6.1 7.8 0.00 0.00 0.00 65 1016.8
20260505233219 71 212 3.5 6.1 0.00 0.00 0.00 64 1016.8
20260505232715 71 177 1.7 2.6 0.00 0.00 0.00 64 1016.5
20260505232213 71 76 1.7 1.7 0.00 0.00 0.00 64 1016.6
20260505231709 71 174 3.5 3.5 0.00 0.00 0.00 63 1016.5
20260505231209 71 160 4.3 11.3 0.00 0.00 0.00 63 1016.8
20260505230706 71 196 5.2 7.8 0.00 0.00 0.00 62 1016.6
20260505230202 72 220 3.5 6.1 0.00 0.00 0.00 62 1016.7
20260505225659 72 33 0.9 0.9 0.00 0.00 0.00 62 1016.7
20260505225156 73 198 6.1 7.8 0.00 0.00 0.00 62 1016.6
20260505224651 73 210 3.5 5.2 0.00 0.00 0.00 61 1016.6
20260505224149 73 175 5.2 6.1 0.00 0.00 0.00 61 1016.7
20260505223647 73 204 5.2 6.1 0.00 0.00 0.00 61 1016.6
20260505223142 73 142 4.3 7.8 0.00 0.00 0.00 60 1016.7
20260505222638 73 205 1.7 2.6 0.00 0.00 0.00 60 1016.6
20260505222135 74 209 3.5 5.2 0.00 0.00 0.00 60 1016.5
20260505221631 74 202 4.3 7.0 0.00 0.00 0.00 59 1016.5
20260505221128 74 208 4.3 6.1 0.00 0.00 0.00 59 1016.4
20260505220626 74 208 5.2 6.1 0.00 0.00 0.00 59 1016.5
20260505220123 75 150 1.7 1.7 0.00 0.00 0.00 59 1016.6
20260505215620 75 107 3.5 6.1 0.00 0.00 0.00 59 1016.4
20260505215118 75 94 1.7 3.5 0.00 0.00 0.00 58 1016.5
20260505214616 75 179 3.5 5.2 0.00 0.00 0.00 58 1016.5
20260505214113 75 119 1.7 2.6 0.00 0.00 0.00 58 1016.5
20260505213611 75 202 7.0 9.6 0.00 0.00 0.00 57 1016.4
20260505213107 76 228 1.7 3.5 0.00 0.00 0.00 56 1016.4
20260505212603 75 231 5.2 6.1 0.00 0.00 0.00 56 1016.3
20260505212101 75 232 5.2 7.8 0.00 0.00 0.00 57 1016.3
20260505211552 75 130 5.2 7.0 0.00 0.00 0.00 58 1016.4
20260505211049 76 209 7.0 9.6 0.00 0.00 0.00 57 1016.4
20260505210545 76 202 7.0 11.3 0.00 0.00 0.00 56 1016.3
20260505210043 76 147 2.6 5.2 0.00 0.00 0.00 56 1016.2
20260505205535 75 213 3.5 7.8 0.00 0.00 0.00 57 1016.3
20260505205032 76 201 5.2 7.8 0.00 0.00 0.00 55 1016.5
20260505204530 76 194 5.2 6.1 0.00 0.00 0.00 55 1016.4
20260505204027 76 102 1.7 1.7 0.00 0.00 0.00 56 1016.4
20260505203523 75 152 2.6 2.6 0.00 0.00 0.00 57 1016.5
20260505203021 76 209 3.5 6.1 0.00 0.00 0.00 55 1016.4
20260505202516 78 183 3.5 5.2 0.00 0.00 0.00 54 1016.4
20260505202012 78 211 7.0 7.8 0.00 0.00 0.00 52 1016.5
20260505201510 77 214 5.2 7.8 0.00 0.00 0.00 54 1016.4
20260505201007 76 145 2.6 3.5 0.00 0.00 0.00 54 1016.5
20260505200505 76 303 1.7 2.6 0.00 0.00 0.00 54 1016.5
20260505200001 78 245 5.2 6.1 0.00 0.00 0.00 51 1016.6
20260505195458 77 103 0.9 1.7 0.00 0.00 0.00 51 1016.7
20260505194955 78 113 4.3 7.0 0.00 0.00 0.00 51 1016.7
20260505194453 78 198 4.3 7.8 0.00 0.00 0.00 50 1016.8
20260505193952 78 172 3.5 6.1 0.00 0.00 0.00 50 1016.7
20260505193450 78 125 4.3 6.1 0.00 0.00 0.00 50 1016.8
20260505192947 78 228 4.3 7.0 0.00 0.00 0.00 50 1017.0
20260505192446 78 186 9.6 13.9 0.00 0.00 0.00 49 1017.2
20260505191943 78 207 1.7 3.5 0.00 0.00 0.00 50 1017.1
20260505191442 79 162 2.6 3.5 0.00 0.00 0.00 49 1017.1
20260505190938 79 187 7.8 8.7 0.00 0.00 0.00 49 1017.1
20260505190433 79 143 3.5 5.2 0.00 0.00 0.00 49 1017.3
20260505185929 80 253 2.6 3.5 0.00 0.00 0.00 49 1017.5
20260505185427 79 156 2.6 3.5 0.00 0.00 0.00 50 1017.3
20260505184922 78 310 7.8 9.6 0.00 0.00 0.00 49 1017.4
20260505184419 78 211 7.8 11.3 0.00 0.00 0.00 49 1017.4
20260505183916 79 222 4.3 6.1 0.00 0.00 0.00 50 1017.5
20260505183413 79 280 2.6 3.5 0.00 0.00 0.00 50 1017.5
20260505182910 79 194 5.2 6.1 0.00 0.00 0.00 50 1017.5
20260505182407 79 197 7.8 8.7 0.00 0.00 0.00 49 1017.4
20260505181903 80 133 2.6 3.5 0.00 0.00 0.00 48 1017.4
20260505181400 79 185 2.6 3.5 0.00 0.00 0.00 51 1017.4
20260505180857 80 193 4.3 7.0 0.00 0.00 0.00 49 1017.4
20260505180353 78 210 0.9 1.7 0.00 0.00 0.00 53 1017.5
20260505175850 78 185 5.2 7.0 0.00 0.00 0.00 53 1017.6
20260505175346 79 181 3.5 3.5 0.00 0.00 0.00 52 1017.4
20260505174843 78 143 1.7 2.6 0.00 0.00 0.00 52 1017.8
20260505174341 78 150 2.6 2.6 0.00 0.00 0.00 52 1017.5
20260505173836 78 72 3.5 6.1 0.00 0.00 0.00 52 1017.5
20260505173332 79 196 8.7 11.3 0.00 0.00 0.00 52 1017.7
20260505172830 80 229 3.5 7.0 0.00 0.00 0.00 51 1017.7
20260505172328 79 168 1.7 1.7 0.00 0.00 0.00 51 1017.6
20260505171827 79 212 2.6 3.5 0.00 0.00 0.00 51 1017.7
20260505171324 79 180 2.6 2.6 0.00 0.00 0.00 51 1017.6
20260505170820 79 90 0.9 1.7 0.00 0.00 0.00 51 1017.5
20260505170318 79 206 4.3 5.2 0.00 0.00 0.00 50 1017.5
20260505165813 78 144 2.6 3.5 0.00 0.00 0.00 50 1017.7
20260505165309 78 140 1.7 1.7 0.00 0.00 0.00 53 1017.5
20260505164804 78 179 7.0 8.7 0.00 0.00 0.00 52 1017.8
20260505164302 77 202 5.2 6.1 0.00 0.00 0.00 52 1017.8
20260505163800 77 71 0.9 0.9 0.00 0.00 0.00 53 1017.7
20260505163258 78 126 3.5 5.2 0.00 0.00 0.00 52 1017.8
20260505162755 78 145 0.9 2.6 0.00 0.00 0.00 52 1017.9
20260505162252 77 197 3.5 6.1 0.00 0.00 0.00 50 1017.9
20260505161749 78 204 5.2 7.0 0.00 0.00 0.00 51 1018.2
20260505161247 79 81 2.6 3.5 0.00 0.00 0.00 50 1018.0
20260505160744 77 117 2.6 3.5 0.00 0.00 0.00 53 1017.9
20260505160242 77 218 3.5 3.5 0.00 0.00 0.00 53 1018.0
20260505153221 76 238 3.5 6.1 0.00 0.00 0.00 54 1018.2
20260505152718 76 72 1.7 2.6 0.00 0.00 0.00 56 1018.5
20260505152214 76 99 0.9 0.9 0.00 0.00 0.00 56 1018.3
20260505151709 76 359 2.6 3.5 0.00 0.00 0.00 57 1018.3
20260505151206 76 197 5.2 7.0 0.00 0.00 0.00 55 1018.5
20260505150657 75 215 1.7 2.6 0.00 0.00 0.00 57 1018.6
20260505150155 75 261 4.3 6.1 0.00 0.00 0.00 57 1018.6
20260505140622 73 250 5.2 6.1 0.00 0.00 0.00 61 1018.6
20260505140120 73 198 3.5 3.5 0.00 0.00 0.00 61 1018.4
20260505125036 69 149 0.9 0.9 0.00 0.00 0.00 72 1018.3
20260505124532 69 205 2.6 3.5 0.00 0.00 0.00 72 1018.6
20260505124029 68 92 0.9 0.9 0.00 0.00 0.00 73 1018.5
20260505123525 68 180 0.9 1.7 0.00 0.00 0.00 74 1018.5
20260505123022 67 122 1.7 1.7 0.00 0.00 0.00 74 1018.4
20260505122519 66 171 1.7 1.7 0.00 0.00 0.00 76 1018.4
20260505122016 65 198 2.6 3.5 0.00 0.00 0.00 76 1018.4
20260505121512 65 210 0.9 1.7 0.00 0.00 0.00 77 1018.3
20260505121009 64 202 1.7 2.6 0.00 0.00 0.00 78 1018.4
20260505120506 63 120 0.9 0.9 0.00 0.00 0.00 79 1018.4
20260505120006 63 83 0.0 0.9 0.00 0.00 0.00 81 1018.3
20260505115501 62 189 1.7 2.6 0.00 0.00 0.00 83 1018.4
20260505114959 61 117 0.9 0.9 0.00 0.00 0.00 86 1018.3
20260505114455 60 179 0.9 1.7 0.00 0.00 0.00 88 1018.2
20260505113952 59 75 0.0 0.9 0.00 0.00 0.00 91 1018.1
20260505113449 58 77 0.0 0.0 0.00 0.00 0.00 93 1018.2
20260505112944 58 107 0.0 0.0 0.00 0.00 0.00 94 1018.1
20260505112441 57 67 0.0 0.0 0.00 0.00 0.00 95 1018.2
20260505111937 56 68 0.0 0.0 0.00 0.00 0.00 96 1018.2
20260505111431 55 68 0.0 0.0 0.00 0.00 0.00 96 1018.0
20260505110928 53 68 0.0 0.0 0.00 0.00 0.00 96 1017.9
20260505110425 52 67 0.0 0.0 0.00 0.00 0.00 95 1017.9
20260505101856 51 75 0.0 0.0 0.00 0.00 0.00 94 1017.5
20260505101351 51 75 0.0 0.0 0.00 0.00 0.00 94 1017.2
20260505100847 51 74 0.0 0.0 0.00 0.00 0.00 94 1017.4
20260505100344 51 74 0.0 0.0 0.00 0.00 0.00 94 1017.0
20260505095840 51 65 0.0 0.0 0.00 0.00 0.00 93 1017.0
20260505095337 51 122 0.0 0.0 0.00 0.00 0.00 93 1017.0
20260505094833 51 123 0.0 0.0 0.00 0.00 0.00 93 1017.0
20260505094331 52 123 0.0 0.0 0.00 0.00 0.00 93 1016.9
20260505093826 52 123 0.0 0.0 0.00 0.00 0.00 93 1016.8
20260505093324 52 123 0.0 0.0 0.00 0.00 0.00 93 1016.8
20260505092820 52 123 0.0 0.0 0.00 0.00 0.00 93 1016.9
20260505092319 52 123 0.0 0.0 0.00 0.00 0.00 92 1016.7
20260505091816 52 123 0.0 0.0 0.00 0.00 0.00 92 1016.8
20260505091314 53 123 0.0 0.0 0.00 0.00 0.00 92 1016.7
20260505090811 53 123 0.0 0.0 0.00 0.00 0.00 92 1016.8
20260505090310 53 123 0.0 0.0 0.00 0.00 0.00 92 1016.8
20260505085806 53 123 0.0 0.0 0.00 0.00 0.00 92 1016.5
20260505085305 53 123 0.0 0.0 0.00 0.00 0.00 91 1016.7
20260505084801 53 123 0.0 0.0 0.00 0.00 0.00 91 1016.7
20260505084300 53 123 0.0 0.0 0.00 0.00 0.00 90 1016.5
20260505083757 53 123 0.0 0.0 0.00 0.00 0.00 90 1016.5
20260505083253 53 123 0.0 0.0 0.00 0.00 0.00 90 1016.4
20260505082750 54 123 0.0 0.0 0.00 0.00 0.00 90 1016.5